KE5HYT Weather Reports


time (UTC)temp
C
wind
direction
speed
KPH
gust
KPH
rain 1hr
cm
rain 24hr
cm
rain mn
cm
humidity
%
barometer
mb
20260510153604 24 151 4.8 12.9 0.00 0.03 0.03 80 1016.5
20260510152704 24 138 3.2 6.4 0.00 0.03 0.03 79 1016.6
20260510151825 23 147 3.2 6.4 0.00 0.03 0.03 82 1016.8
20260510150903 22 215 3.2 6.4 0.00 0.03 0.03 84 1016.9
20260510150004 22 170 3.2 8.0 0.03 0.03 0.03 85 1016.9
20260510145403 22 201 3.2 6.4 0.03 0.03 0.03 87 1016.7
20260510144503 21 139 1.6 6.4 0.03 0.03 0.03 90 1016.7
20260510143625 20 201 3.2 4.8 0.03 0.03 0.03 93 1016.6
20260510142704 20 171 3.2 6.4 0.03 0.03 0.03 95 1016.6
20260510141824 19 167 3.2 8.0 0.03 0.03 0.03 96 1016.6
20260510140903 18 165 3.2 6.4 0.03 0.03 0.03 97 1016.4
20260510140003 18 184 4.8 9.7 0.00 0.00 0.00 97 1016.6
20260510135403 18 178 4.8 9.7 0.00 0.00 0.00 97 1016.4
20260510134524 17 168 6.4 9.7 0.00 0.00 0.00 97 1016.4
20260510133625 17 167 3.2 9.7 0.00 0.00 0.00 97 1016.4
20260510132704 17 166 1.6 8.0 0.00 0.00 0.00 97 1016.5
20260510131825 17 0 0.0 0.0 0.00 0.00 0.00 97 1016.4
20260510130903 16 0 0.0 0.0 0.00 0.00 0.00 97 1016.4
20260510130024 16 0 0.0 0.0 0.00 0.00 0.00 97 1016.3
20260510125403 16 0 0.0 0.0 0.00 0.00 0.00 97 1016.4
20260510124503 16 0 0.0 0.0 0.00 0.00 0.00 97 1016.3
20260510123604 15 0 0.0 0.0 0.00 0.00 0.00 97 1016.3
20260510122724 15 0 0.0 0.0 0.00 0.00 0.00 97 1016.3
20260510121803 15 0 0.0 0.0 0.00 0.00 0.00 97 1016.3
20260510120903 15 0 0.0 0.0 0.00 0.00 0.00 96 1016.2
20260510120004 15 0 0.0 0.0 0.00 0.00 0.00 96 1016.2
20260510115403 14 0 0.0 0.0 0.00 0.00 0.00 96 1016.2
20260510114503 14 0 0.0 0.0 0.00 0.00 0.00 96 1015.9
20260510113603 14 0 0.0 0.0 0.00 0.00 0.00 96 1015.5
20260510112703 14 0 0.0 0.0 0.00 0.00 0.00 96 1015.3
20260510111803 14 0 0.0 0.0 0.00 0.00 0.00 95 1015.2
20260510110924 14 0 0.0 0.0 0.00 0.00 0.00 95 1014.9
20260510110004 14 0 0.0 0.0 0.00 0.00 0.00 96 1014.7
20260510105403 14 0 0.0 0.0 0.00 0.00 0.00 95 1014.6
20260510104503 14 0 0.0 0.0 0.00 0.00 0.00 95 1014.6
20260510103603 14 0 0.0 0.0 0.00 0.00 0.00 95 1014.5
20260510102703 14 0 0.0 0.0 0.00 0.00 0.00 95 1014.4
20260510101803 15 0 0.0 0.0 0.00 0.00 0.00 95 1014.3
20260510100903 15 0 0.0 0.0 0.00 0.00 0.00 95 1014.4
20260510100004 15 0 0.0 0.0 0.00 0.00 0.00 95 1014.1
20260510095403 15 0 0.0 0.0 0.00 0.00 0.00 95 1014.1
20260510094524 15 0 0.0 0.0 0.00 0.00 0.00 95 1014.0
20260510093603 15 0 0.0 0.0 0.00 0.00 0.00 95 1013.9
20260510092703 15 0 0.0 0.0 0.00 0.00 0.00 95 1013.5
20260510091803 15 0 0.0 0.0 0.00 0.00 0.00 95 1013.6
20260510090903 15 0 0.0 0.0 0.00 0.00 0.00 95 1013.7
20260510090003 15 0 0.0 0.0 0.00 0.00 0.00 95 1013.6
20260510085403 15 0 0.0 0.0 0.00 0.00 0.00 95 1013.5
20260510084503 15 0 0.0 0.0 0.00 0.00 0.00 95 1013.7
20260510083624 15 0 0.0 0.0 0.00 0.00 0.00 95 1013.6
20260510082703 15 0 0.0 0.0 0.00 0.00 0.00 95 1013.6
20260510081803 15 0 0.0 0.0 0.00 0.00 0.00 95 1013.6
20260510080904 15 0 0.0 0.0 0.00 0.00 0.00 95 1013.7
20260510080003 15 0 0.0 0.0 0.00 0.00 0.00 95 1013.6
20260510075403 15 0 0.0 0.0 0.00 0.00 0.00 95 1013.6
20260510074505 16 0 0.0 0.0 0.00 0.00 0.00 95 1013.7
20260510073605 16 0 0.0 0.0 0.00 0.00 0.00 95 1013.6
20260510072705 16 0 0.0 0.0 0.00 0.00 0.00 94 1013.7
20260510071805 16 0 0.0 0.0 0.00 0.00 0.00 94 1013.5
20260510070904 16 0 0.0 0.0 0.00 0.00 0.00 94 1013.4
20260510070005 16 0 0.0 0.0 0.00 0.00 0.00 94 1013.3
20260510065405 16 0 0.0 0.0 0.00 0.00 0.00 94 1013.2
20260510064504 16 0 0.0 0.0 0.00 0.00 0.00 94 1013.4
20260510063626 16 0 0.0 0.0 0.00 0.00 0.00 94 1013.4
20260510062705 16 0 0.0 0.0 0.00 0.00 0.00 93 1013.5
20260510061804 16 0 0.0 0.0 0.00 0.00 0.00 94 1013.4
20260510060905 16 0 0.0 0.0 0.00 0.00 0.00 93 1013.5
20260510060026 17 0 0.0 0.0 0.00 0.00 0.00 93 1013.6
20260510055405 17 0 0.0 0.0 0.00 0.00 0.00 93 1013.6
20260510054505 17 0 0.0 0.0 0.00 0.00 0.00 92 1013.6
20260510053605 17 0 0.0 0.0 0.00 0.00 0.00 92 1013.5
20260510052705 17 0 0.0 0.0 0.00 0.00 0.00 92 1013.4
20260510051825 17 0 0.0 0.0 0.00 0.00 0.00 92 1013.4
20260510050926 17 0 0.0 0.0 0.00 0.00 0.00 91 1013.3
20260510050006 18 0 0.0 0.0 0.00 0.00 0.00 91 1013.3
20260510045405 18 0 0.0 0.0 0.00 0.00 0.00 91 1013.2
20260510044505 18 0 0.0 0.0 0.00 0.00 0.00 91 1013.2
20260510043605 18 0 0.0 0.0 0.00 0.00 0.00 90 1013.3
20260510042704 18 0 0.0 0.0 0.00 0.00 0.00 90 1013.1
20260510041826 18 0 0.0 0.0 0.00 0.00 0.00 90 1013.3
20260510040904 18 0 0.0 0.0 0.00 0.00 0.00 90 1013.4
20260510040005 18 0 0.0 0.0 0.00 0.00 0.00 90 1013.6
20260510035405 18 0 0.0 0.0 0.00 0.00 0.00 90 1013.4
20260510034505 18 0 0.0 0.0 0.00 0.00 0.00 90 1013.6
20260510033605 18 0 0.0 0.0 0.00 0.00 0.00 91 1013.7
20260510032704 18 0 0.0 0.0 0.00 0.00 0.00 91 1013.6
20260510031825 17 0 0.0 0.0 0.00 0.00 0.00 92 1013.6
20260510030905 17 0 0.0 0.0 0.00 0.00 0.00 91 1013.6
20260510030025 17 0 0.0 0.0 0.00 0.00 0.00 90 1013.5
20260510025405 17 0 0.0 0.0 0.00 0.00 0.00 90 1013.5
20260510024504 18 0 0.0 0.0 0.00 0.00 0.00 89 1013.4
20260510023604 18 0 0.0 0.0 0.00 0.00 0.00 88 1013.1
20260510022726 18 0 0.0 0.0 0.00 0.00 0.00 88 1013.1
20260510021804 18 0 0.0 0.0 0.00 0.00 0.00 87 1012.9
20260510020904 18 0 0.0 0.0 0.00 0.00 0.00 86 1012.7
20260510020005 18 0 0.0 0.0 0.00 0.00 0.00 86 1012.5
20260510015404 18 0 0.0 0.0 0.00 0.00 0.00 85 1012.4
20260510014525 19 0 0.0 0.0 0.00 0.00 0.00 84 1012.2
20260510013604 19 0 0.0 0.0 0.00 0.00 0.00 83 1012.0
20260510012726 20 0 0.0 0.0 0.00 0.00 0.00 82 1011.8
20260510011804 20 0 0.0 0.0 0.00 0.00 0.00 80 1011.5
20260510010904 21 0 0.0 0.0 0.00 0.00 0.00 80 1011.4
20260510010025 21 0 0.0 0.0 0.00 0.00 0.00 77 1011.3
20260510005404 21 0 0.0 0.0 0.00 0.00 0.00 76 1011.2
20260510004504 21 0 0.0 0.0 0.00 0.00 0.00 75 1011.2
20260510003604 22 0 0.0 0.0 0.00 0.00 0.00 74 1010.9
20260510002704 22 0 0.0 0.0 0.00 0.00 0.00 73 1010.9
20260510001804 22 205 0.0 1.6 0.00 0.00 0.00 71 1010.7
20260510000904 23 206 0.0 1.6 0.00 0.00 0.00 69 1010.6
20260510000004 23 206 0.0 1.6 0.00 0.00 0.00 67 1010.6
20260509235404 23 206 0.0 1.6 0.00 0.00 0.00 66 1010.5
20260509234504 24 206 1.6 4.8 0.00 0.00 0.00 63 1010.5
20260509233604 25 193 3.2 6.4 0.00 0.00 0.00 62 1010.6
20260509232704 25 168 6.4 9.7 0.00 0.00 0.00 60 1010.6
20260509231804 25 187 4.8 12.9 0.00 0.00 0.00 62 1010.7
20260509230904 26 169 6.4 12.9 0.00 0.00 0.00 61 1010.5
20260509230004 26 175 8.0 14.5 0.00 0.00 0.00 62 1010.5
20260509225404 26 173 6.4 14.5 0.00 0.00 0.00 61 1010.4
20260509224504 26 185 6.4 16.1 0.00 0.00 0.00 61 1010.3
20260509223604 26 180 8.0 16.1 0.00 0.00 0.00 61 1010.3
20260509222704 27 175 8.0 16.1 0.00 0.00 0.00 60 1010.2
20260509221804 27 180 3.2 11.3 0.00 0.00 0.00 50 1010.2
20260509220904 28 350 1.6 1.6 0.00 0.00 0.00 49 1010.1
20260509220025 27 339 1.6 4.8 0.00 0.00 0.00 43 1010.1
20260509215404 27 277 1.6 6.4 0.00 0.00 0.00 48 1010.1
20260509214504 27 223 1.6 6.4 0.00 0.00 0.00 44 1010.1
20260509213604 28 218 1.6 6.4 0.00 0.00 0.00 45 1010.1
20260509212704 27 261 1.6 6.4 0.00 0.00 0.00 44 1010.1
20260509211804 27 249 3.2 8.0 0.00 0.00 0.00 50 1010.2
20260509210925 27 357 3.2 9.7 0.00 0.00 0.00 49 1010.2
20260509210004 27 311 4.8 9.7 0.00 0.00 0.00 43 1010.3
20260509205404 27 295 3.2 9.7 0.00 0.00 0.00 43 1010.4
20260509204504 27 257 3.2 6.4 0.00 0.00 0.00 44 1010.3
20260509203625 27 271 3.2 6.4 0.00 0.00 0.00 45 1010.5
20260509202704 27 231 3.2 12.9 0.00 0.00 0.00 46 1010.7
20260509201804 27 218 4.8 11.3 0.00 0.00 0.00 46 1010.3
20260509200904 27 287 3.2 11.3 0.00 0.00 0.00 52 1010.6
20260509200004 26 282 3.2 11.3 0.00 0.00 0.00 48 1010.7
20260509195404 27 276 3.2 11.3 0.00 0.00 0.00 48 1010.6
20260509194504 27 192 4.8 14.5 0.00 0.00 0.00 51 1010.7
20260509193604 27 12 3.2 12.9 0.00 0.00 0.00 52 1010.7
20260509192704 26 282 3.2 9.7 0.00 0.00 0.00 56 1010.8
20260509191804 27 202 4.8 12.9 0.00 0.00 0.00 54 1010.7
20260509190904 27 194 6.4 12.9 0.00 0.00 0.00 52 1010.7
20260509190025 27 195 4.8 14.5 0.00 0.00 0.00 52 1011.0
20260509185404 26 236 4.8 12.9 0.00 0.00 0.00 52 1011.0
20260509184504 27 199 3.2 12.9 0.00 0.00 0.00 53 1011.2
20260509183604 26 187 4.8 14.5 0.00 0.00 0.00 58 1011.1
20260509182704 25 170 3.2 12.9 0.00 0.00 0.00 59 1011.3
20260509181804 26 180 4.8 9.7 0.00 0.00 0.00 55 1011.3
20260509180925 26 183 3.2 9.7 0.00 0.00 0.00 62 1011.5
20260509180004 25 201 4.8 12.9 0.00 0.00 0.00 62 1011.5
20260509175404 25 205 4.8 11.3 0.00 0.00 0.00 63 1011.5
20260509174526 25 239 4.8 14.5 0.00 0.00 0.00 57 1011.5
20260509173604 25 194 8.0 16.1 0.00 0.00 0.00 55 1011.4
20260509172704 24 266 3.2 12.9 0.00 0.00 0.00 63 1011.5
20260509171825 25 214 3.2 6.4 0.00 0.00 0.00 60 1011.5
20260509170903 24 199 3.2 8.0 0.00 0.00 0.00 62 1011.6
20260509170004 23 260 3.2 9.7 0.00 0.00 0.00 62 1011.6
20260509165403 23 269 3.2 9.7 0.00 0.00 0.00 61 1011.7
20260509164504 24 249 4.8 14.5 0.00 0.00 0.00 64 1011.6
20260509163604 24 176 3.2 12.9 0.00 0.00 0.00 61 1011.6
20260509162725 24 202 4.8 12.9 0.00 0.00 0.00 61 1011.8
20260509161804 24 189 4.8 11.3 0.00 0.00 0.00 65 1011.7
20260509160903 23 223 3.2 11.3 0.00 0.00 0.00 66 1011.8
20260509160004 23 200 3.2 11.3 0.00 0.00 0.00 66 1011.8
20260509155424 23 312 3.2 11.3 0.00 0.00 0.00 65 1011.6
20260509154504 23 244 3.2 9.7 0.00 0.00 0.00 67 1011.7